Home   Weather   Astana   Past weeks

Flag for Kazakhstan Past Weather in Astana, Kazakhstan — Yesterday and Last 2 Weeks

Now
57 °F

Partly cloudy.


Feels Like: 56 °F
Forecast: 44 / 59 °F
Wind: 6 mph from South

Location: Astana

Current Time: May 30, 2017 at 1:12:22 am

Latest Report: May 30, 2017 at 12:30 am


Visibility: N/A

Pressure: 29.45 "Hg

Humidity: 88%

Dew Point: 54 °F

Location of AstanaLocation

Past Weather in Astana — Graph

°F

Astana Temperature Yesterday

Maximum temperature yesterday: 75 °F (at 3:30 pm)
Minimum temperature yesterday: 50 °F (at 1:30 am)
Average temperature yesterday: 63 °F

High & Low Weather Summary for the Past Weeks

 TemperatureHumidityPressure
High84 °F (May 22, 3:30 pm)100% (May 24, 4:30 am)30.42 "Hg (May 24, 4:30 am)
Low32 °F (May 17, 5:30 am)13% (May 20, 4:00 pm)29.47 "Hg (May 23, 10:00 am)
Average58 °F49%30.00 "Hg
* Reported May 14 11:00 pm — May 29 11:30 pm, Astana. Weather by CustomWeather, © 2017

Note: Actual official high and low records may vary slightly from our data, if they occured in-between our weather recording intervals... More about our weather records

Advertising

Astana Weather History for the Previous 24 Hours

Scroll right to see more
 ConditionsComfort  
Time TempWeatherWind HumidityBarometerVisibility
11:30 pm
Mon, May 29
59 °FPartly cloudy.3 mph82%29.47 "HgN/A
11:00 pm61 °FPartly cloudy.6 mph77%29.47 "HgN/A
10:30 pm61 °FPartly cloudy.8 mph77%29.50 "HgN/A
10:00 pm61 °FThundershowers. Broken clouds.8 mph77%29.47 "HgN/A
9:30 pm61 °FBroken clouds.13 mph77%29.47 "HgN/A
9:00 pm63 °FBroken clouds.10 mph83%29.47 "HgN/A
8:30 pm64 °FBroken clouds.15 mph78%29.47 "HgN/A
8:00 pm64 °FBroken clouds.24 mph73%29.47 "HgN/A
7:30 pm66 °FSprinkles. Mostly cloudy.22 mph78%29.47 "Hg3 mi
7:00 pm70 °FSprinkles. Mostly cloudy.13 mph64%29.47 "Hg3 mi
6:30 pm73 °FPartly sunny.10 mph41%29.47 "HgN/A
5:30 pm73 °FPartly sunny.13 mph38%29.50 "HgN/A
5:00 pm73 °FPartly sunny.13 mph38%29.50 "HgN/A
4:30 pm75 °FPartly sunny.10 mph39%29.50 "HgN/A
4:00 pm73 °FBroken clouds.13 mph38%29.53 "HgN/A
3:30 pm75 °FBroken clouds.15 mph36%29.53 "HgN/A
2:30 pm72 °FBroken clouds.10 mph47%29.56 "HgN/A
2:00 pm72 °FBroken clouds.10 mph47%29.59 "HgN/A
1:30 pm73 °FBroken clouds.17 mph36%29.59 "HgN/A
1:00 pm73 °FBroken clouds.20 mph38%29.59 "HgN/A
12:30 pm73 °FBroken clouds.17 mph38%29.62 "HgN/A
12:00 pm73 °FBroken clouds.20 mph38%29.62 "HgN/A
11:30 am72 °FBroken clouds.20 mph47%29.62 "HgN/A
11:00 am72 °FSunny.15 mph47%29.65 "Hg10 mi
10:30 am68 °FSunny.15 mph56%29.65 "Hg10 mi
10:00 am66 °FPartly sunny.13 mph64%29.68 "HgN/A
9:30 am63 °FPartly sunny.13 mph73%29.68 "HgN/A
8:30 am61 °FSunny.8 mph72%29.71 "Hg10 mi
8:00 am59 °FSunny.8 mph77%29.71 "Hg10 mi
7:30 am57 °FSunny.8 mph82%29.71 "Hg10 mi
6:30 am52 °FSunny.6 mph88%29.74 "Hg10 mi
6:00 am52 °FClear.3 mph88%29.74 "Hg10 mi
5:30 am50 °FClear.6 mph94%29.74 "Hg10 mi
4:30 am50 °FClear.6 mph94%29.74 "Hg10 mi
4:00 am50 °FClear.6 mph94%29.74 "Hg10 mi
3:30 am50 °FClear.8 mph94%29.74 "Hg10 mi
3:00 am50 °FClear.6 mph94%29.74 "Hg10 mi
2:30 am50 °FClear.8 mph94%29.74 "Hg10 mi
1:30 am50 °FClear.8 mph88%29.74 "Hg10 mi
1:00 am54 °FClear.8 mph82%29.74 "Hg10 mi
Weather by CustomWeather, © 2017

See weather overviewHow to use our weather pages